Regional Weather Roundup
Issued by NWS Cleveland, OH

Home | Current Version | Previous Version | Graphics & Text | Print | Product List | Glossary On
Versions: 1 2 3 4 5 6 7 8 9 10 11 12 13 14 15 16 17 18 19 20 21 22 23 24 25 26 27 28 29 30 31 32 33 34 35 36 37 38 39 40 41 42 43 44 45 46 47 48 49 50
000
ASUS41 KCLE 241512
RWRCLE
OHIO REGIONAL WEATHER ROUNDUP
NATIONAL WEATHER SERVICE WILMINGTON, OH
1100 AM EDT SAT SEP 24 2016

NOTE: "FAIR" INDICATES FEW OR NO CLOUDS BELOW 12,000 FEET WITH NO
SIGNIFICANT WEATHER AND/OR OBSTRUCTIONS TO VISIBILITY.

OHZ001>008-015>018-024>027-034-035-043-044-241600-
   NORTHWEST OHIO

CITY           SKY/WX    TMP DP  RH WIND       PRES   REMARKS
DEFIANCE       CLOUDY    67  55  65 NE9       30.23R
FINDLAY        CLOUDY    67  59  75 NE13      30.21S
TOLEDO EXPRESS CLOUDY    63  57  81 NE12      30.23S
TOLEDO EXEC    CLOUDY    66  59  78 NE12      30.24S
LIMA           CLOUDY    66  63  90 NE8       30.21S
$$

OHZ009>014-019>023-028>033-038-089-241600-
   NORTHEAST OHIO

CITY           SKY/WX    TMP DP  RH WIND       PRES   REMARKS
CLE-HOPKINS    CLOUDY    68  53  58 NE9       30.23R
CLE-LAKEFRONT  PTSUNNY   69  52  54 NE10      30.21R
CUY CO. ARPT   MOSUNNY   66  54  63 NE9       30.23R
LORAIN-ELYRIA  CLOUDY    68  55  63 NE9       30.22R
ASHTABULA      FAIR      64  50  60 NE10      30.24S
AKRON-CANTON   FAIR      67  52  58 N9        30.20S
WOOSTER        PTSUNNY   68  57  68 NE7       30.21S
MANSFIELD      PTSUNNY   69  60  73 NE9       30.21S
YOUNGSTOWN     FAIR      62  54  74 N12       30.21S
$$

OHZ042-051>053-060>062-070>072-077>081-241600-
  SOUTHWEST OHIO

CITY           SKY/WX    TMP DP  RH WIND       PRES   REMARKS
CINC-COVINGTON FAIR      77  68  73 NE5       30.16S
CINC-LUNKEN    FAIR      75  69  81 NE8       30.16S
HAMILTON       FAIR      72  66  81 NE7       30.18R HAZE
DAYTON         CLOUDY    68  65  90 NE7       30.21R
WRIGHT-PAT AFB CLOUDY    70  67  90 N6        30.18S
DAYTON GENERAL CLOUDY    71  64  78 NE8       30.18R
WILMINGTON     CLOUDY    70  66  87 NE9       30.18S FOG
$$

OHZ036-037-039>041-045>050-054>059-063>069-073>076-082>088-241600-
  CENTRAL AND SOUTHEAST OHIO

CITY           SKY/WX    TMP DP  RH WIND       PRES   REMARKS
COLUMBUS       FAIR      75  66  73 E6        30.17S
OSU AIRPORT    CLOUDY    73  66  78 NE6       30.18R
BOLTON FIELD   PTSUNNY   73  66  78 E6        30.18S
RICKENBACK AFB CLOUDY    72  65  77 NE7       30.17S
NEWARK         CLOUDY    73  63  70 NE7       30.17S
MARION         PTSUNNY   72  61  68 NE10      30.20S
LANCASTER      PTSUNNY   74  64  71 NE10      30.18S
ZANESVILLE     FAIR      73  61  65 NE12      30.18S
NEW PHILLY     FAIR      73  59  61 VRB7      30.18F
$$




USA.gov is the U.S. government's official web portal to all federal, state and local government web resources and services.